Location: Bishopstone
(51.0167°N, 1.9000°W)
Time: 09:43:22
(UTC+00:00)

ERBS - Pass Details

Date: 16 September 2019
Orbit: 418 x 425 km, 57.0° (Epoch: 15 October)

Event Time Altitude Azimuth Distance (km) Brightness Sun altitude
Rises 20:44:22 0° 300° (WNW) 2,394 7.6 -22.0°
Reaches altitude 10° 20:46:30 10° 305° (NW) 1,526 6.2 -22.2°
Enters shadow 20:49:19 48° 345° (NNW) 565 3.1 -22.6°
